Back to catalog

COSMOS 2140

GLONASS

AliveNavigationMEO
NORAD 21217·PAYLOAD·🇷🇺 Russia

Launched Apr 4, 1991 from Baikonur Cosmodrome

Loading…

Next Passes (next 24 hours)

TLE

FreshSource: Space-Track

Epoch: Sep 13, 2026, 09:11 UTC

1 21217U 91025B   26256.38304352 -.00000036  00000-0  00000-0 0  9999
2 21217  64.2916 301.1940 0028481 216.3307 145.9500  2.13101180275821

Track COSMOS 2140 in real time with AllMySat

Download on the App Store